Time,TemperatureF,DewpointF,PressureIn,WindDirection,WindDirectionDegrees,WindSpeedMPH,WindSpeedGustMPH,Humidity,HourlyPrecipIn,Conditions,Clouds,dailyrainin,SoftwareType,DateUTC
2013-06-29 00:03:00,85.1,63.0,29.79,ESE,117,0.0,2.0,48,0.00,,,0.00,weatherlink.com 1.10,2013-06-29 05:03:00,
2013-06-29 00:18:00,84.7,63.0,29.79,ESE,117,1.0,3.0,48,0.00,,,0.00,weatherlink.com 1.10,2013-06-29 05:18:00,
2013-06-29 00:33:00,84.1,63.0,29.79,ESE,117,0.0,1.0,50,0.00,,,0.00,weatherlink.com 1.10,2013-06-29 05:33:00,
2013-06-29 00:48:00,83.1,63.0,29.80,ESE,109,5.0,7.0,50,0.00,,,0.00,weatherlink.com 1.10,2013-06-29 05:48:00,
2013-06-29 01:03:00,84.2,63.0,29.80,ESE,109,3.0,3.0,49,0.00,,,0.00,weatherlink.com 1.10,2013-06-29 06:03:00,
2013-06-29 01:18:00,82.9,63.0,29.80,ESE,109,1.0,3.0,51,0.00,,,0.00,weatherlink.com 1.10,2013-06-29 06:18:00,
2013-06-29 01:33:00,82.6,64.0,29.80,ESE,109,3.0,4.0,53,0.00,,,0.00,weatherlink.com 1.10,2013-06-29 06:33:00,
2013-06-29 02:03:00,82.2,64.0,29.80,ESE,109,1.0,3.0,55,0.00,,,0.00,weatherlink.com 1.10,2013-06-29 07:03:00,
2013-06-29 02:18:00,81.5,64.0,29.80,ESE,109,0.0,3.0,56,0.00,,,0.00,weatherlink.com 1.10,2013-06-29 07:18:00,
2013-06-29 02:33:00,81.3,65.0,29.80,ESE,109,1.0,2.0,57,0.00,,,0.00,weatherlink.com 1.10,2013-06-29 07:33:00,
2013-06-29 02:48:00,81.6,65.0,29.80,ESE,109,2.0,4.0,58,0.00,,,0.00,weatherlink.com 1.10,2013-06-29 07:48:00,
2013-06-29 03:03:00,82.0,66.0,29.80,ESE,109,2.0,3.0,58,0.00,,,0.00,weatherlink.com 1.10,2013-06-29 08:03:00,
2013-06-29 03:18:00,81.9,67.0,29.80,ESE,109,3.0,3.0,61,0.00,,,0.00,weatherlink.com 1.10,2013-06-29 08:18:00,
2013-06-29 03:33:00,81.8,67.0,29.80,ESE,109,0.0,4.0,62,0.00,,,0.00,weatherlink.com 1.10,2013-06-29 08:33:00,
2013-06-29 03:48:00,81.3,68.0,29.80,ESE,108,2.0,5.0,64,0.00,,,0.00,weatherlink.com 1.10,2013-06-29 08:48:00,
2013-06-29 04:03:00,81.6,68.0,29.80,ESE,108,0.0,5.0,64,0.00,,,0.00,weatherlink.com 1.10,2013-06-29 09:03:00,
2013-06-29 04:18:00,81.5,69.0,29.80,ESE,102,1.0,7.0,65,0.00,,,0.00,weatherlink.com 1.10,2013-06-29 09:18:00,
2013-06-29 04:33:00,82.0,69.0,29.80,ENE,59,1.0,4.0,64,0.00,,,0.00,weatherlink.com 1.10,2013-06-29 09:33:00,
2013-06-29 04:48:00,81.9,69.0,29.80,ENE,59,0.0,4.0,64,0.00,,,0.00,weatherlink.com 1.10,2013-06-29 09:48:00,
2013-06-29 05:03:00,80.8,68.0,29.80,ENE,59,1.0,2.0,66,0.00,,,0.00,weatherlink.com 1.10,2013-06-29 10:03:00,
2013-06-29 05:18:00,79.7,68.0,29.81,ENE,59,0.0,2.0,68,0.00,,,0.00,weatherlink.com 1.10,2013-06-29 10:18:00,
2013-06-29 05:33:00,79.1,69.0,29.81,ENE,59,1.0,2.0,70,0.00,,,0.00,weatherlink.com 1.10,2013-06-29 10:33:00,
2013-06-29 05:48:00,78.5,68.0,29.80,ENE,59,0.0,2.0,69,0.00,,,0.00,weatherlink.com 1.10,2013-06-29 10:48:00,
2013-06-29 06:03:00,77.6,68.0,29.81,ENE,59,0.0,1.0,71,0.00,,,0.00,weatherlink.com 1.10,2013-06-29 11:03:00,
2013-06-29 06:18:00,78.0,68.0,29.81,ENE,59,1.0,4.0,71,0.00,,,0.00,weatherlink.com 1.10,2013-06-29 11:18:00,
2013-06-29 06:33:00,78.6,68.0,29.81,ENE,59,1.0,3.0,70,0.00,,,0.00,weatherlink.com 1.10,2013-06-29 11:33:00,
2013-06-29 06:48:00,77.9,69.0,29.81,ENE,59,0.0,1.0,73,0.00,,,0.00,weatherlink.com 1.10,2013-06-29 11:48:00,
2013-06-29 07:03:00,77.7,68.0,29.81,ENE,59,2.0,3.0,72,0.00,,,0.00,weatherlink.com 1.10,2013-06-29 12:03:00,
2013-06-29 07:18:00,78.0,67.0,29.81,ENE,59,2.0,3.0,70,0.00,,,0.00,weatherlink.com 1.10,2013-06-29 12:18:00,
2013-06-29 07:33:00,78.1,68.0,29.82,ENE,59,0.0,3.0,71,0.00,,,0.00,weatherlink.com 1.10,2013-06-29 12:33:00,
2013-06-29 07:49:00,79.6,69.0,29.82,ENE,59,1.0,2.0,70,0.00,,,0.00,weatherlink.com 1.10,2013-06-29 12:49:00,
2013-06-29 08:04:00,81.9,69.0,29.82,ENE,59,0.0,3.0,65,0.00,,,0.00,weatherlink.com 1.10,2013-06-29 13:04:00,
2013-06-29 08:19:00,83.7,70.0,29.83,ENE,59,2.0,2.0,64,0.00,,,0.00,weatherlink.com 1.10,2013-06-29 13:19:00,
2013-06-29 08:34:00,85.0,70.0,29.83,ENE,59,1.0,6.0,60,0.00,,,0.00,weatherlink.com 1.10,2013-06-29 13:34:00,
2013-06-29 08:49:00,86.5,70.0,29.83,ENE,59,2.0,4.0,58,0.00,,,0.00,weatherlink.com 1.10,2013-06-29 13:49:00,
2013-06-29 09:04:00,88.1,69.0,29.83,ENE,59,1.0,4.0,54,0.00,,,0.00,weatherlink.com 1.10,2013-06-29 14:04:00,
2013-06-29 09:19:00,89.4,69.0,29.82,ENE,59,1.0,4.0,51,0.00,,,0.00,weatherlink.com 1.10,2013-06-29 14:19:00,
2013-06-29 09:34:00,91.1,68.0,29.82,ESE,102,3.0,7.0,47,0.00,,,0.00,weatherlink.com 1.10,2013-06-29 14:34:00,
2013-06-29 09:49:00,92.6,68.0,29.82,ESE,103,0.0,7.0,44,0.00,,,0.00,weatherlink.com 1.10,2013-06-29 14:49:00,
2013-06-29 10:04:00,93.6,68.0,29.82,ESE,109,5.0,6.0,43,0.00,,,0.00,weatherlink.com 1.10,2013-06-29 15:04:00,
2013-06-29 10:19:00,95.7,68.0,29.82,ESE,108,6.0,7.0,41,0.00,,,0.00,weatherlink.com 1.10,2013-06-29 15:19:00,
2013-06-29 10:34:00,96.4,68.0,29.82,East,91,3.0,7.0,39,0.00,,,0.00,weatherlink.com 1.10,2013-06-29 15:34:00,
2013-06-29 10:49:00,97.0,68.0,29.82,NNE,19,6.0,8.0,39,0.00,,,0.00,weatherlink.com 1.10,2013-06-29 15:49:00,
2013-06-29 11:04:00,96.9,66.0,29.81,NE,56,2.0,5.0,36,0.00,,,0.00,weatherlink.com 1.10,2013-06-29 16:04:00,
2013-06-29 11:19:00,98.5,65.0,29.81,ENE,77,3.0,7.0,33,0.00,,,0.00,weatherlink.com 1.10,2013-06-29 16:19:00,
2013-06-29 11:34:00,99.9,65.0,29.81,ENE,68,3.0,7.0,32,0.00,,,0.00,weatherlink.com 1.10,2013-06-29 16:34:00,
2013-06-29 11:49:00,100.5,65.0,29.82,NNE,16,5.0,9.0,31,0.00,,,0.00,weatherlink.com 1.10,2013-06-29 16:49:00,
2013-06-29 12:04:00,101.4,66.0,29.82,North,5,6.0,12.0,31,0.00,,,0.00,weatherlink.com 1.10,2013-06-29 17:04:00,
2013-06-29 12:19:00,102.3,64.0,29.82,NNE,33,8.0,11.0,29,0.00,,,0.00,weatherlink.com 1.10,2013-06-29 17:19:00,
2013-06-29 12:34:00,102.3,64.0,29.81,East,81,3.0,10.0,29,0.00,,,0.00,weatherlink.com 1.10,2013-06-29 17:34:00,
2013-06-29 12:49:00,102.5,66.0,29.81,NNE,14,2.0,8.0,30,0.00,,,0.00,weatherlink.com 1.10,2013-06-29 17:49:00,
2013-06-29 13:04:00,103.1,64.0,29.80,North,353,4.0,9.0,28,0.00,,,0.00,weatherlink.com 1.10,2013-06-29 18:04:00,
2013-06-29 13:19:00,103.7,62.0,29.80,North,11,6.0,9.0,25,0.00,,,0.00,weatherlink.com 1.10,2013-06-29 18:19:00,
2013-06-29 13:34:00,106.0,61.0,29.80,NNE,14,4.0,14.0,23,0.00,,,0.00,weatherlink.com 1.10,2013-06-29 18:34:00,
2013-06-29 13:49:00,104.5,62.0,29.80,NNW,338,2.0,14.0,25,0.00,,,0.00,weatherlink.com 1.10,2013-06-29 18:49:00,
2013-06-29 14:04:00,105.7,62.0,29.79,NNE,33,7.0,13.0,24,0.00,,,0.00,weatherlink.com 1.10,2013-06-29 19:04:00,
2013-06-29 14:19:00,105.0,62.0,29.78,NNE,33,8.0,13.0,24,0.00,,,0.00,weatherlink.com 1.10,2013-06-29 19:19:00,
2013-06-29 14:35:00,104.6,61.0,29.77,NNW,330,3.0,14.0,24,0.00,,,0.00,weatherlink.com 1.10,2013-06-29 19:35:00,
2013-06-29 14:50:00,105.4,63.0,29.77,North,1,2.0,10.0,25,0.00,,,0.00,weatherlink.com 1.10,2013-06-29 19:50:00,
2013-06-29 15:05:00,104.8,64.0,29.76,North,2,4.0,10.0,26,0.00,,,0.00,weatherlink.com 1.10,2013-06-29 20:05:00,
2013-06-29 15:20:00,106.2,63.0,29.76,NE,52,8.0,15.0,24,0.00,,,0.00,weatherlink.com 1.10,2013-06-29 20:20:00,
2013-06-29 15:35:00,105.1,62.0,29.75,SE,134,9.0,13.0,24,0.00,,,0.00,weatherlink.com 1.10,2013-06-29 20:35:00,
2013-06-29 15:50:00,105.2,62.0,29.74,ENE,57,1.0,10.0,24,0.00,,,0.00,weatherlink.com 1.10,2013-06-29 20:50:00,
2013-06-29 16:05:00,106.2,61.0,29.74,ENE,62,7.0,13.0,23,0.00,,,0.00,weatherlink.com 1.10,2013-06-29 21:05:00,
2013-06-29 16:20:00,105.4,62.0,29.74,East,81,6.0,8.0,24,0.00,,,0.00,weatherlink.com 1.10,2013-06-29 21:20:00,
2013-06-29 16:35:00,105.3,62.0,29.73,East,83,3.0,8.0,24,0.00,,,0.00,weatherlink.com 1.10,2013-06-29 21:35:00,
2013-06-29 16:50:00,104.1,61.0,29.72,ESE,102,3.0,11.0,24,0.00,,,0.00,weatherlink.com 1.10,2013-06-29 21:50:00,
2013-06-29 17:05:00,105.2,60.0,29.72,East,84,8.0,12.0,23,0.00,,,0.00,weatherlink.com 1.10,2013-06-29 22:05:00,
2013-06-29 17:21:00,105.0,60.0,29.71,ENE,68,4.0,10.0,23,0.00,,,0.00,weatherlink.com 1.10,2013-06-29 22:21:00,
2013-06-29 17:36:00,104.5,60.0,29.71,North,358,6.0,10.0,23,0.00,,,0.00,weatherlink.com 1.10,2013-06-29 22:36:00,
2013-06-29 17:51:00,104.4,60.0,29.71,NNE,12,9.0,10.0,23,0.00,,,0.00,weatherlink.com 1.10,2013-06-29 22:51:00,
2013-06-29 18:06:00,103.0,60.0,29.70,ENE,70,2.0,11.0,24,0.00,,,0.00,weatherlink.com 1.10,2013-06-29 23:06:00,
2013-06-29 18:21:00,103.3,61.0,29.70,NE,43,8.0,9.0,25,0.00,,,0.00,weatherlink.com 1.10,2013-06-29 23:21:00,
2013-06-29 18:36:00,102.9,61.0,29.70,NE,48,3.0,9.0,25,0.00,,,0.00,weatherlink.com 1.10,2013-06-29 23:36:00,
2013-06-29 18:51:00,102.4,60.0,29.70,North,359,3.0,9.0,25,0.00,,,0.00,weatherlink.com 1.10,2013-06-29 23:51:00,
2013-06-29 19:06:00,101.1,62.0,29.70,ENE,72,5.0,13.0,28,0.00,,,0.00,weatherlink.com 1.10,2013-06-30 00:06:00,
2013-06-29 19:21:00,100.1,63.0,29.70,ESE,102,4.0,12.0,29,0.00,,,0.00,weatherlink.com 1.10,2013-06-30 00:21:00,
2013-06-29 19:36:00,99.5,62.0,29.70,East,95,5.0,11.0,29,0.00,,,0.00,weatherlink.com 1.10,2013-06-30 00:36:00,
2013-06-29 19:51:00,98.4,63.0,29.71,ENE,70,6.0,14.0,31,0.00,,,0.00,weatherlink.com 1.10,2013-06-30 00:51:00,
2013-06-29 20:06:00,97.4,64.0,29.71,ESE,104,8.0,17.0,33,0.00,,,0.00,weatherlink.com 1.10,2013-06-30 01:06:00,
2013-06-29 20:21:00,96.1,63.0,29.72,East,95,9.0,14.0,33,0.00,,,0.00,weatherlink.com 1.10,2013-06-30 01:21:00,
2013-06-29 20:36:00,94.9,62.0,29.73,East,87,7.0,14.0,33,0.00,,,0.00,weatherlink.com 1.10,2013-06-30 01:36:00,
2013-06-29 20:51:00,94.0,61.0,29.73,East,98,5.0,12.0,33,0.00,,,0.00,weatherlink.com 1.10,2013-06-30 01:51:00,
2013-06-29 21:06:00,93.2,60.0,29.74,ESE,110,5.0,11.0,33,0.00,,,0.00,weatherlink.com 1.10,2013-06-30 02:06:00,
2013-06-29 21:21:00,92.7,60.0,29.74,East,85,5.0,12.0,33,0.00,,,0.00,weatherlink.com 1.10,2013-06-30 02:21:00,
2013-06-29 21:36:00,92.3,59.0,29.74,East,93,5.0,12.0,33,0.00,,,0.00,weatherlink.com 1.10,2013-06-30 02:36:00,
2013-06-29 21:51:00,91.7,60.0,29.75,ESE,110,2.0,7.0,34,0.00,,,0.00,weatherlink.com 1.10,2013-06-30 02:51:00,
2013-06-29 22:06:00,89.9,59.0,29.75,East,93,4.0,5.0,35,0.00,,,0.00,weatherlink.com 1.10,2013-06-30 03:06:00,
2013-06-29 22:21:00,89.1,59.0,29.76,East,88,4.0,6.0,36,0.00,,,0.00,weatherlink.com 1.10,2013-06-30 03:21:00,
2013-06-29 22:36:00,88.2,59.0,29.76,East,83,0.0,7.0,37,0.00,,,0.00,weatherlink.com 1.10,2013-06-30 03:36:00,
2013-06-29 22:51:00,87.7,59.0,29.77,East,82,2.0,5.0,38,0.00,,,0.00,weatherlink.com 1.10,2013-06-30 03:51:00,
2013-06-29 23:06:00,87.8,59.0,29.77,NE,37,3.0,7.0,38,0.00,,,0.00,weatherlink.com 1.10,2013-06-30 04:06:00,
2013-06-29 23:21:00,88.0,59.0,29.77,East,83,3.0,6.0,38,0.00,,,0.00,weatherlink.com 1.10,2013-06-30 04:21:00,
2013-06-29 23:36:00,87.7,59.0,29.78,East,85,2.0,4.0,38,0.00,,,0.00,weatherlink.com 1.10,2013-06-30 04:36:00,
2013-06-29 23:51:00,87.4,60.0,29.79,ENE,67,7.0,8.0,39,0.00,,,0.00,weatherlink.com 1.10,2013-06-30 04:51:00,